CW7222 Weather Reports


time (UTC)temp
C
wind
direction
speed
KPH
gust
KPH
rain 1hr
cm
rain 24hr
cm
rain mn
cm
humidity
%
barometer
mb
20260506184331 17 136 4.8 14.5 0.00 0.00 0.00 83 1010.2
20260506183342 17 153 4.8 14.5 0.00 0.00 0.00 82 1010.2
20260506182351 17 176 8.0 14.5 0.00 0.00 0.00 82 1009.9
20260506181338 17 138 8.0 16.1 0.00 0.00 0.00 82 1009.9
20260506180347 17 164 8.0 11.3 0.00 0.00 0.00 82 1009.9
20260506175351 17 140 8.0 14.5 0.00 0.00 0.00 82 1009.9
20260506174339 17 120 6.4 14.5 0.00 0.00 0.00 81 1009.8
20260506173349 17 177 8.0 12.9 0.00 0.00 0.00 81 1009.8
20260506172337 17 129 9.7 14.5 0.00 0.00 0.00 80 1009.6
20260506170334 17 153 6.4 14.5 0.00 0.00 0.00 80 1009.5
20260506165343 17 132 9.7 16.1 0.00 0.00 0.00 78 1009.4
20260506164332 18 175 0.0 12.9 0.00 0.00 0.00 77 1009.4
20260506163338 18 145 6.4 19.3 0.00 0.00 0.00 76 1009.4
20260506161336 18 165 0.0 12.9 0.00 0.00 0.00 75 1009.4
20260506160346 18 147 0.0 3.2 0.00 0.00 0.00 73 1009.4
20260506154347 18 171 1.6 9.7 0.00 0.00 0.00 71 1009.4
20260506153332 18 184 1.6 11.3 0.00 0.00 0.00 69 1009.4
20260506152340 18 178 8.0 12.9 0.00 0.00 0.00 67 1009.4
20260506151348 18 153 1.6 11.3 0.00 0.00 0.00 65 1009.5
20260506145346 18 153 1.6 9.7 0.00 0.00 0.00 70 1009.5
20260506144339 18 150 0.0 11.3 0.00 0.00 0.00 70 1009.7
20260506142334 18 154 3.2 12.9 0.00 0.00 0.00 63 1009.9
20260506135336 18 167 9.7 17.7 0.00 0.00 0.00 75 1009.9
20260506134347 18 165 8.0 17.7 0.00 0.00 0.00 74 1010.1
20260506133333 18 163 9.7 19.3 0.00 0.00 0.00 73 1010.1
20260506132341 18 189 9.7 14.5 0.00 0.00 0.00 73 1010.2
20260506131349 18 168 9.7 16.1 0.00 0.00 0.00 70 1010.4
20260506130335 18 207 9.7 16.1 0.00 0.00 0.00 71 1010.4
20260506125344 18 135 9.7 17.7 0.00 0.00 0.00 70 1010.4
20260506124333 18 150 0.0 17.7 0.00 0.00 0.00 72 1010.4
20260506123339 18 140 6.4 16.1 0.00 0.00 0.00 69 1010.4
20260506122348 18 100 9.7 16.1 0.00 0.00 0.00 65 1010.4
20260506121332 18 173 6.4 16.1 0.00 0.00 0.00 60 1010.4
20260506120344 18 109 8.0 16.1 0.00 0.00 0.00 61 1010.4
20260506115351 18 161 8.0 14.5 0.00 0.00 0.00 61 1010.4
20260506114338 18 129 8.0 12.9 0.00 0.00 0.00 60 1010.4
20260506113346 17 121 4.8 11.3 0.00 0.00 0.00 60 1010.4
20260506111341 17 107 4.8 12.9 0.00 0.00 0.00 62 1010.6
20260506110332 17 171 6.4 14.5 0.00 0.00 0.00 63 1010.6
20260506104336 17 166 3.2 12.9 0.00 0.00 0.00 64 1010.9
20260506102350 17 149 8.0 14.5 0.00 0.00 0.00 66 1010.8
20260506101338 17 140 6.4 14.5 0.00 0.00 0.00 65 1010.9
20260506100347 17 165 0.0 14.5 0.00 0.00 0.00 71 1010.9
20260506095331 17 184 6.4 12.9 0.00 0.00 0.00 72 1010.9
20260506094340 17 157 3.2 11.3 0.00 0.00 0.00 72 1010.9
20260506092336 17 182 0.0 11.3 0.00 0.00 0.00 73 1010.9
20260506090335 17 154 0.0 0.0 0.00 0.00 0.00 74 1010.9
20260506085347 17 153 0.0 0.0 0.00 0.00 0.00 74 1010.6
20260506084331 17 138 0.0 11.3 0.00 0.00 0.00 73 1010.5
20260506083339 17 159 0.0 14.5 0.00 0.00 0.00 73 1010.5
20260506081332 17 138 3.2 8.0 0.00 0.00 0.00 75 1010.5
20260506080341 17 159 0.0 0.0 0.00 0.00 0.00 73 1010.5
20260506073347 17 49 1.6 3.2 0.00 0.00 0.00 73 1010.3
20260506072335 16 27 3.2 6.4 0.00 0.00 0.00 74 1010.2
20260506071342 15 315 4.8 11.3 0.00 0.00 0.00 73 1010.0
20260506070331 15 306 8.0 12.9 0.00 0.00 0.00 72 1010.0
20260506062341 15 323 6.4 9.7 0.00 0.00 0.00 82 1009.9
20260506061350 14 312 3.2 8.0 0.00 0.00 0.00 84 1009.9
20260506051347 12 309 0.0 0.0 0.00 0.00 0.00 89 1009.4
20260506050340 12 309 0.0 0.0 0.00 0.00 0.00 89 1009.4
20260506044333 12 309 1.6 4.8 0.00 0.00 0.00 89 1009.3
20260506043340 12 309 1.6 4.8 0.00 0.00 0.00 89 1009.3
20260506042349 12 309 0.0 3.2 0.00 0.00 0.00 89 1009.2
20260506041335 13 309 1.6 3.2 0.00 0.00 0.00 89 1009.1
20260506040349 13 309 1.6 3.2 0.00 0.00 0.00 88 1009.1
20260506033351 13 309 0.0 3.2 0.00 0.00 0.00 89 1009.0
20260506032338 13 309 1.6 6.4 0.00 0.00 0.00 89 1009.0
20260506030340 13 309 0.0 1.6 0.00 0.00 0.00 88 1009.1
20260506025348 12 309 0.0 3.2 0.00 0.00 0.00 88 1009.0
20260506024334 12 309 1.6 3.2 0.00 0.00 0.00 88 1009.0
20260506023341 12 309 1.6 3.2 0.00 0.00 0.00 87 1009.0
20260506022350 12 309 3.2 4.8 0.00 0.00 0.00 87 1008.9
20260506021341 12 309 3.2 4.8 0.00 0.00 0.00 87 1008.9
20260506020333 12 311 3.2 8.0 0.00 0.00 0.00 86 1008.9
20260506015341 12 304 1.6 6.4 0.00 0.00 0.00 86 1008.9
20260506013337 12 310 1.6 4.8 0.00 0.00 0.00 86 1008.8
20260506012349 12 310 3.2 4.8 0.00 0.00 0.00 86 1008.9
20260506011340 12 309 1.6 6.4 0.00 0.00 0.00 86 1008.9
20260506010349 12 311 3.2 4.8 0.00 0.00 0.00 85 1008.9
20260506005338 12 313 3.2 6.4 0.00 0.00 0.00 85 1008.9
20260506002346 12 316 1.6 4.8 0.00 0.00 0.00 84 1009.0
20260506001338 12 316 3.2 4.8 0.00 0.00 0.00 84 1009.2
20260506000348 13 316 1.6 3.2 0.00 0.00 0.00 84 1009.2
20260505235334 13 316 1.6 6.4 0.00 0.00 0.00 83 1009.4
20260505232346 14 319 1.6 4.8 0.00 0.00 0.00 82 1009.2
20260505231337 15 319 3.2 6.4 0.00 0.00 0.00 79 1009.1
20260505230351 15 338 0.0 0.0 0.00 0.00 0.00 76 1009.1
20260505224347 16 338 0.0 0.0 0.00 0.00 0.00 70 1009.5
20260505223334 16 339 0.0 6.4 0.00 0.00 0.00 69 1009.5
20260505222343 16 339 1.6 8.0 0.00 0.00 0.00 69 1009.8
20260505221332 16 355 4.8 11.3 0.00 0.00 0.00 69 1009.8
20260505215332 15 331 4.8 11.3 0.00 0.00 0.00 69 1009.9
20260505214341 15 329 4.8 8.0 0.00 0.00 0.00 69 1009.6
20260505213349 15 319 6.4 9.7 0.00 0.00 0.00 70 1009.6
20260505212335 15 310 3.2 8.0 0.00 0.00 0.00 70 1009.4
20260505211347 15 325 4.8 6.4 0.00 0.00 0.00 69 1009.4
20260505210351 15 332 3.2 8.0 0.00 0.00 0.00 69 1009.4
20260505204349 15 274 3.2 9.7 0.00 0.10 0.00 69 1008.9
20260505203336 15 309 0.0 0.0 0.00 0.10 0.00 67 1008.9
20260505202344 16 310 0.0 0.0 0.00 0.10 0.00 67 1008.4
20260505201333 16 315 0.0 11.3 0.00 0.10 0.00 66 1008.3
20260505200351 16 312 8.0 14.5 0.00 0.10 0.00 66 1008.3
20260505193338 16 294 9.7 17.7 0.00 0.10 0.00 68 1008.0
20260505192345 16 317 8.0 25.7 0.00 0.10 0.00 68 1008.3
20260505191335 16 311 3.2 14.5 0.00 0.10 0.00 67 1008.1
20260505185350 16 295 4.8 6.4 0.00 0.10 0.00 66 1007.8